QPF
0.02 0.02 0.01 0.00 0.00 0.00 0.00 0.00 0.00 0.00 0.00 0.00 0.00 0.00 0.00 0.00 0.00 0.00 0.00 0.00 0.00 0.00 0.00 0.01 0.01 0.01 0.01 0.01 0.01 0.01 0.01 0.00 0.01 0.01 0.01 0.02 0.04 0.06 0.06 0.04 0.02 0.01 0.01
0.01 0.02 0.01 0.00 0.00 0.00 0.00 0.00 0.00 0.00 0.00 0.00 0.00 0.00 0.00 0.00 0.00 0.00 0.00 0.00 0.00 0.00 0.00 0.00 0.01 0.01 0.00 0.00 0.00 0.01 0.01 0.01 0.01 0.02 0.03 0.03 0.05 0.07 0.08 0.03 0.01 0.01 0.01
0.01 0.01 0.01 0.00 0.00 0.00 0.00 0.00 0.00 0.00 0.00 0.00 0.00 0.00 0.00 0.00 0.00 0.00 0.00 0.00 0.00 0.00 0.00 0.00 0.01 0.01 0.00 0.00 0.01 0.01 0.01 0.01 0.02 0.05 0.05 0.03 0.03 0.05 0.07 0.02 0.01 0.01 0.01
0.01 0.01 0.01 0.01 0.00 0.00 0.00 0.00 0.00 0.00 0.00 0.00 0.00 0.00 0.00 0.00 0.00 0.00 0.00 0.00 0.00 0.01 0.01 0.01 0.00 0.00 0.00 0.01 0.01 0.02 0.02 0.02 0.04 0.04 0.02 0.02 0.02 0.04 0.04 0.01 0.01 0.01 0.00
0.01 0.01 0.01 0.01 0.01 0.00 0.00 0.00 0.00 0.00 0.00 0.00 0.00 0.00 0.00 0.00 0.00 0.00 0.00 0.00 0.00 0.01 0.01 0.01 0.00 0.00 0.00 0.01 0.02 0.02 0.03 0.04 0.06 0.04 0.03 0.03 0.04 0.04 0.02 0.01 0.00 0.01 0.00
0.02 0.01 0.01 0.01 0.01 0.01 0.01 0.00 0.00 0.00 0.00 0.00 0.00 0.00 0.00 0.00 0.00 0.00 0.01 0.00 0.00 0.01 0.01 0.01 0.00 0.00 0.01 0.01 0.01 0.02 0.02 0.04 0.05 0.03 0.03 0.04 0.05 0.05 0.03 0.02 0.01 0.00 0.00
0.03 0.02 0.01 0.01 0.01 0.01 0.01 0.01 0.00 0.00 0.00 0.00 0.00 0.00 0.01 0.01 0.01 0.00 0.00 0.00 0.00 0.00 0.00 0.00 0.00 0.00 0.01 0.01 0.01 0.01 0.02 0.04 0.03 0.03 0.04 0.04 0.05 0.06 0.05 0.02 0.01 0.00 0.00
0.03 0.03 0.02 0.01 0.01 0.01 0.01 0.01 0.01 0.01 0.00 0.00 0.00 0.00 0.01 0.01 0.01 0.01 0.00 0.00 0.01 0.00 0.00 0.00 0.00 0.00 0.01 0.01 0.01 0.02 0.03 0.03 0.03 0.03 0.03 0.02 0.03 0.06 0.06 0.03 0.01 0.01 0.00
0.03 0.03 0.03 0.02 0.01 0.01 0.01 0.01 0.00 0.00 0.00 0.00 0.00 0.01 0.00 0.00 0.01 0.00 0.01 0.01 0.01 0.01 0.00 0.00 0.00 0.01 0.01 0.01 0.01 0.02 0.03 0.04 0.03 0.03 0.03 0.02 0.02 0.05 0.07 0.07 0.04 0.03 0.02
0.02 0.02 0.01 0.01 0.01 0.01 0.01 0.01 0.00 0.00 0.00 0.00 0.00 0.01 0.01 0.00 0.00 0.00 0.01 0.01 0.01 0.02 0.01 0.01 0.01 0.01 0.01 0.01 0.01 0.02 0.02 0.03 0.03 0.02 0.02 0.02 0.03 0.06 0.11 0.11 0.09 0.07 0.04
0.02 0.01 0.02 0.02 0.01 0.01 0.00 0.01 0.00 0.00 0.00 0.00 0.00 0.01 0.01 0.01 0.01 0.01 0.01 0.02 0.02 0.03 0.03 0.03 0.02 0.02 0.02 0.02 0.02 0.03 0.02 0.02 0.02 0.02 0.02 0.02 0.04 0.08 0.12 0.10 0.09 0.08 0.05
0.02 0.02 0.03 0.03 0.02 0.01 0.00 0.00 0.01 0.01 0.01 0.01 0.01 0.01 0.01 0.02 0.02 0.02 0.02 0.03 0.04 0.04 0.04 0.04 0.04 0.03 0.03 0.01 0.01 0.01 0.01 0.02 0.02 0.03 0.02 0.03 0.07 0.10 0.12 0.11 0.08 0.08 0.07
0.06 0.07 0.05 0.03 0.03 0.01 0.01 0.01 0.01 0.01 0.01 0.02 0.01 0.01 0.01 0.01 0.02 0.01 0.02 0.03 0.04 0.04 0.04 0.04 0.04 0.03 0.02 0.01 0.01 0.01 0.01 0.01 0.02 0.03 0.03 0.05 0.07 0.13 0.16 0.14 0.10 0.09 0.08
0.09 0.09 0.08 0.06 0.04 0.04 0.03 0.02 0.02 0.02 0.02 0.01 0.01 0.01 0.01 0.01 0.02 0.02 0.02 0.02 0.03 0.04 0.04 0.04 0.03 0.03 0.02 0.02 0.02 0.02 0.02 0.02 0.02 0.02 0.03 0.04 0.05 0.10 0.14 0.15 0.13 0.12 0.10
0.11 0.08 0.05 0.05 0.06 0.05 0.05 0.04 0.02 0.02 0.01 0.01 0.02 0.02 0.01 0.02 0.03 0.04 0.04 0.03 0.03 0.04 0.05 0.05 0.05 0.04 0.04 0.04 0.05 0.05 0.04 0.03 0.02 0.02 0.02 0.04 0.06 0.07 0.10 0.12 0.13 0.14 0.11
0.16 0.14 0.10 0.07 0.07 0.06 0.05 0.05 0.04 0.04 0.03 0.02 0.02 0.02 0.03 0.04 0.07 0.09 0.07 0.06 0.05 0.06 0.06 0.06 0.06 0.07 0.05 0.04 0.05 0.04 0.04 0.04 0.03 0.03 0.02 0.03 0.04 0.06 0.09 0.10 0.14 0.16 0.15
0.17 0.17 0.13 0.08 0.08 0.06 0.04 0.06 0.05 0.04 0.04 0.03 0.02 0.02 0.03 0.04 0.06 0.08 0.07 0.06 0.07 0.07 0.07 0.09 0.09 0.08 0.07 0.05 0.06 0.06 0.05 0.06 0.07 0.05 0.04 0.03 0.03 0.06 0.09 0.12 0.13 0.14 0.14
0.14 0.15 0.20 0.16 0.10 0.08 0.07 0.07 0.09 0.11 0.07 0.04 0.03 0.03 0.03 0.03 0.03 0.04 0.05 0.07 0.07 0.08 0.09 0.10 0.11 0.09 0.07 0.06 0.07 0.07 0.06 0.08 0.09 0.07 0.05 0.05 0.03 0.04 0.06 0.09 0.11 0.12 0.12
0.15 0.15 0.15 0.12 0.10 0.08 0.08 0.10 0.11 0.11 0.06 0.04 0.03 0.02 0.03 0.02 0.03 0.04 0.07 0.09 0.08 0.08 0.10 0.11 0.11 0.09 0.08 0.07 0.08 0.07 0.06 0.08 0.09 0.07 0.06 0.05 0.05 0.05 0.07 0.10 0.12 0.12 0.12
0.18 0.17 0.18 0.15 0.14 0.10 0.08 0.08 0.10 0.06 0.05 0.03 0.02 0.02 0.03 0.03 0.04 0.05 0.08 0.10 0.10 0.11 0.11 0.10 0.10 0.11 0.10 0.10 0.09 0.08 0.08 0.08 0.09 0.08 0.06 0.07 0.06 0.06 0.09 0.09 0.09 0.10 0.11
0.14 0.14 0.12 0.10 0.11 0.11 0.10 0.11 0.08 0.05 0.03 0.03 0.03 0.02 0.03 0.03 0.04 0.06 0.08 0.11 0.12 0.13 0.13 0.13 0.13 0.13 0.12 0.11 0.10 0.10 0.09 0.08 0.08 0.08 0.07 0.06 0.06 0.07 0.09 0.08 0.08 0.08 0.07
0.10 0.10 0.08 0.09 0.09 0.10 0.11 0.08 0.05 0.04 0.03 0.04 0.03 0.03 0.02 0.02 0.03 0.03 0.05 0.08 0.11 0.11 0.12 0.13 0.15 0.14 0.11 0.11 0.10 0.10 0.09 0.09 0.07 0.06 0.05 0.05 0.06 0.09 0.10 0.08 0.07 0.08 0.07
0.12 0.13 0.10 0.10 0.08 0.08 0.08 0.07 0.06 0.04 0.03 0.03 0.03 0.03 0.02 0.02 0.03 0.03 0.04 0.05 0.07 0.09 0.09 0.08 0.09 0.11 0.11 0.10 0.09 0.10 0.07 0.05 0.05 0.05 0.04 0.04 0.05 0.07 0.08 0.07 0.07 0.07 0.07
0.14 0.14 0.11 0.09 0.07 0.06 0.06 0.05 0.04 0.03 0.03 0.03 0.03 0.03 0.03 0.03 0.03 0.03 0.03 0.04 0.06 0.09 0.10 0.09 0.08 0.09 0.09 0.08 0.08 0.07 0.06 0.06 0.05 0.04 0.03 0.04 0.04 0.04 0.04 0.05 0.06 0.06 0.05
0.16 0.16 0.15 0.11 0.08 0.06 0.06 0.06 0.05 0.04 0.03 0.03 0.02 0.02 0.02 0.02 0.02 0.02 0.03 0.03 0.05 0.07 0.08 0.11 0.13 0.12 0.12 0.10 0.09 0.08 0.07 0.07 0.06 0.04 0.03 0.03 0.03 0.02 0.02 0.03 0.04 0.04 0.04
0.18 0.15 0.12 0.10 0.08 0.08 0.07 0.05 0.05 0.03 0.03 0.02 0.02 0.02 0.02 0.02 0.02 0.02 0.03 0.05 0.05 0.06 0.07 0.09 0.12 0.12 0.12 0.12 0.11 0.09 0.07 0.07 0.06 0.04 0.03 0.02 0.02 0.02 0.02 0.03 0.03 0.04 0.06
MSLP
1014.05 1013.80 1013.72 1013.82 1014.03 1014.29 1014.52 1014.68 1014.75 1014.74 1014.72 1014.74 1014.87 1015.12 1015.49 1015.94 1016.41 1016.83 1017.15 1017.36 1017.46 1017.48 1017.47 1017.47 1017.52 1017.63 1017.78 1017.95 1018.12 1018.25 1018.33 1018.38 1018.41 1018.45 1018.50 1018.60 1018.72 1018.86 1019.00 1019.12 1019.20 1019.24 1019.27
1013.67 1013.52 1013.53 1013.71 1014.00 1014.33 1014.63 1014.86 1014.98 1015.03 1015.06 1015.11 1015.25 1015.50 1015.84 1016.25 1016.66 1017.02 1017.29 1017.47 1017.56 1017.59 1017.62 1017.68 1017.77 1017.91 1018.07 1018.22 1018.34 1018.42 1018.45 1018.45 1018.45 1018.48 1018.54 1018.66 1018.81 1018.97 1019.12 1019.24 1019.31 1019.36 1019.38
1013.20 1013.16 1013.27 1013.54 1013.92 1014.34 1014.72 1015.03 1015.23 1015.35 1015.44 1015.54 1015.69 1015.93 1016.23 1016.57 1016.90 1017.18 1017.39 1017.52 1017.59 1017.64 1017.70 1017.79 1017.93 1018.09 1018.26 1018.39 1018.48 1018.52 1018.51 1018.49 1018.48 1018.52 1018.61 1018.76 1018.93 1019.11 1019.27 1019.38 1019.46 1019.49 1019.52
1012.77 1012.82 1013.03 1013.39 1013.85 1014.34 1014.80 1015.18 1015.46 1015.66 1015.80 1015.94 1016.11 1016.33 1016.59 1016.86 1017.11 1017.31 1017.45 1017.54 1017.59 1017.65 1017.73 1017.86 1018.02 1018.20 1018.36 1018.48 1018.55 1018.56 1018.54 1018.52 1018.53 1018.60 1018.73 1018.91 1019.11 1019.30 1019.46 1019.57 1019.63 1019.66 1019.69
1012.48 1012.62 1012.90 1013.31 1013.82 1014.37 1014.87 1015.30 1015.63 1015.88 1016.07 1016.25 1016.44 1016.65 1016.88 1017.10 1017.29 1017.43 1017.52 1017.57 1017.61 1017.67 1017.77 1017.92 1018.09 1018.27 1018.43 1018.54 1018.59 1018.59 1018.58 1018.58 1018.63 1018.74 1018.91 1019.12 1019.34 1019.53 1019.68 1019.77 1019.81 1019.84 1019.87
1012.41 1012.60 1012.92 1013.36 1013.89 1014.43 1014.94 1015.37 1015.72 1015.99 1016.22 1016.42 1016.63 1016.85 1017.06 1017.26 1017.42 1017.53 1017.60 1017.64 1017.68 1017.75 1017.86 1018.01 1018.18 1018.35 1018.49 1018.58 1018.62 1018.64 1018.64 1018.68 1018.77 1018.92 1019.13 1019.36 1019.58 1019.76 1019.89 1019.95 1019.98 1020.00 1020.04
1012.57 1012.78 1013.11 1013.54 1014.05 1014.55 1015.02 1015.41 1015.73 1016.00 1016.22 1016.44 1016.67 1016.91 1017.14 1017.35 1017.51 1017.63 1017.70 1017.75 1017.80 1017.88 1017.99 1018.14 1018.30 1018.45 1018.57 1018.64 1018.68 1018.70 1018.73 1018.79 1018.92 1019.11 1019.33 1019.57 1019.78 1019.95 1020.04 1020.09 1020.10 1020.11 1020.15
1012.91 1013.12 1013.43 1013.84 1014.29 1014.72 1015.11 1015.43 1015.70 1015.93 1016.14 1016.37 1016.61 1016.88 1017.14 1017.38 1017.58 1017.72 1017.82 1017.89 1017.96 1018.04 1018.16 1018.29 1018.43 1018.56 1018.65 1018.71 1018.74 1018.76 1018.81 1018.90 1019.05 1019.25 1019.49 1019.72 1019.91 1020.04 1020.11 1020.14 1020.13 1020.15 1020.20
1013.31 1013.52 1013.83 1014.20 1014.58 1014.93 1015.23 1015.47 1015.66 1015.84 1016.03 1016.25 1016.51 1016.81 1017.11 1017.38 1017.62 1017.79 1017.92 1018.02 1018.10 1018.19 1018.30 1018.42 1018.54 1018.64 1018.71 1018.75 1018.78 1018.81 1018.86 1018.97 1019.12 1019.33 1019.55 1019.76 1019.93 1020.04 1020.09 1020.10 1020.10 1020.12 1020.19
1013.68 1013.91 1014.21 1014.55 1014.88 1015.17 1015.38 1015.55 1015.67 1015.80 1015.96 1016.18 1016.45 1016.76 1017.09 1017.39 1017.65 1017.85 1017.99 1018.10 1018.18 1018.27 1018.37 1018.47 1018.57 1018.66 1018.72 1018.75 1018.78 1018.81 1018.87 1018.97 1019.12 1019.31 1019.51 1019.70 1019.85 1019.94 1019.98 1020.00 1020.02 1020.07 1020.17
1013.93 1014.18 1014.51 1014.84 1015.15 1015.39 1015.55 1015.66 1015.75 1015.84 1015.98 1016.19 1016.46 1016.78 1017.11 1017.42 1017.68 1017.87 1018.01 1018.10 1018.18 1018.25 1018.33 1018.42 1018.50 1018.58 1018.64 1018.68 1018.71 1018.75 1018.82 1018.91 1019.05 1019.22 1019.40 1019.56 1019.69 1019.78 1019.84 1019.89 1019.94 1020.03 1020.16
1014.00 1014.31 1014.67 1015.02 1015.33 1015.56 1015.71 1015.80 1015.87 1015.95 1016.09 1016.30 1016.57 1016.88 1017.20 1017.48 1017.72 1017.88 1017.98 1018.05 1018.09 1018.13 1018.19 1018.26 1018.35 1018.43 1018.50 1018.56 1018.61 1018.65 1018.72 1018.81 1018.93 1019.08 1019.23 1019.38 1019.51 1019.61 1019.70 1019.79 1019.90 1020.03 1020.20
1013.92 1014.28 1014.68 1015.06 1015.39 1015.64 1015.80 1015.91 1016.00 1016.10 1016.26 1016.47 1016.74 1017.03 1017.32 1017.57 1017.76 1017.87 1017.92 1017.94 1017.94 1017.94 1017.98 1018.04 1018.13 1018.22 1018.32 1018.40 1018.47 1018.53 1018.60 1018.68 1018.79 1018.91 1019.05 1019.19 1019.33 1019.46 1019.59 1019.74 1019.90 1020.09 1020.30
1013.72 1014.12 1014.55 1014.96 1015.31 1015.59 1015.79 1015.94 1016.08 1016.22 1016.41 1016.64 1016.91 1017.19 1017.45 1017.65 1017.79 1017.85 1017.85 1017.82 1017.78 1017.75 1017.76 1017.82 1017.90 1018.01 1018.13 1018.23 1018.33 1018.41 1018.48 1018.56 1018.65 1018.75 1018.88 1019.01 1019.17 1019.33 1019.52 1019.72 1019.94 1020.17 1020.42
1013.46 1013.86 1014.30 1014.71 1015.09 1015.40 1015.64 1015.85 1016.04 1016.25 1016.48 1016.74 1017.02 1017.29 1017.53 1017.70 1017.80 1017.83 1017.79 1017.72 1017.65 1017.60 1017.59 1017.63 1017.72 1017.84 1017.97 1018.09 1018.20 1018.30 1018.38 1018.45 1018.53 1018.62 1018.73 1018.86 1019.03 1019.22 1019.45 1019.70 1019.97 1020.24 1020.51
1013.19 1013.56 1013.96 1014.36 1014.74 1015.06 1015.36 1015.62 1015.87 1016.13 1016.41 1016.71 1017.01 1017.29 1017.52 1017.69 1017.78 1017.79 1017.74 1017.66 1017.58 1017.52 1017.50 1017.52 1017.60 1017.71 1017.85 1017.98 1018.10 1018.20 1018.28 1018.35 1018.42 1018.49 1018.59 1018.72 1018.89 1019.10 1019.35 1019.64 1019.94 1020.24 1020.53
1012.94 1013.25 1013.60 1013.95 1014.30 1014.64 1014.96 1015.27 1015.58 1015.89 1016.21 1016.54 1016.86 1017.15 1017.40 1017.58 1017.69 1017.72 1017.70 1017.64 1017.56 1017.50 1017.47 1017.49 1017.54 1017.63 1017.75 1017.88 1018.00 1018.10 1018.19 1018.26 1018.31 1018.38 1018.46 1018.58 1018.74 1018.95 1019.20 1019.50 1019.81 1020.13 1020.43
1012.73 1012.96 1013.23 1013.53 1013.86 1014.19 1014.53 1014.87 1015.22 1015.57 1015.92 1016.26 1016.60 1016.90 1017.16 1017.37 1017.52 1017.61 1017.63 1017.62 1017.58 1017.53 1017.49 1017.48 1017.51 1017.57 1017.66 1017.76 1017.87 1017.98 1018.07 1018.14 1018.20 1018.26 1018.33 1018.43 1018.56 1018.75 1018.99 1019.26 1019.57 1019.89 1020.20
1012.54 1012.69 1012.89 1013.15 1013.45 1013.78 1014.14 1014.51 1014.88 1015.24 1015.60 1015.94 1016.26 1016.57 1016.84 1017.09 1017.28 1017.43 1017.53 1017.57 1017.57 1017.54 1017.50 1017.47 1017.45 1017.47 1017.52 1017.60 1017.71 1017.82 1017.92 1018.01 1018.08 1018.14 1018.20 1018.27 1018.38 1018.52 1018.72 1018.96 1019.24 1019.55 1019.86
1012.36 1012.45 1012.60 1012.82 1013.12 1013.47 1013.85 1014.24 1014.63 1014.99 1015.33 1015.64 1015.93 1016.21 1016.48 1016.74 1016.99 1017.20 1017.36 1017.47 1017.52 1017.51 1017.46 1017.40 1017.34 1017.31 1017.33 1017.39 1017.49 1017.61 1017.75 1017.87 1017.97 1018.04 1018.10 1018.14 1018.20 1018.29 1018.43 1018.62 1018.86 1019.15 1019.46
1012.16 1012.21 1012.35 1012.58 1012.90 1013.28 1013.70 1014.12 1014.51 1014.86 1015.16 1015.42 1015.65 1015.89 1016.13 1016.39 1016.66 1016.92 1017.14 1017.31 1017.40 1017.41 1017.36 1017.27 1017.17 1017.10 1017.08 1017.13 1017.24 1017.39 1017.57 1017.74 1017.88 1017.98 1018.03 1018.06 1018.07 1018.10 1018.17 1018.30 1018.49 1018.74 1019.05
1011.92 1011.97 1012.12 1012.39 1012.76 1013.20 1013.67 1014.13 1014.53 1014.86 1015.11 1015.30 1015.46 1015.63 1015.82 1016.06 1016.34 1016.62 1016.89 1017.10 1017.22 1017.26 1017.20 1017.09 1016.96 1016.86 1016.82 1016.86 1016.99 1017.19 1017.42 1017.65 1017.84 1017.97 1018.04 1018.04 1018.01 1017.97 1017.97 1018.02 1018.15 1018.37 1018.67
1011.63 1011.70 1011.89 1012.22 1012.66 1013.18 1013.72 1014.22 1014.64 1014.96 1015.16 1015.28 1015.37 1015.46 1015.59 1015.79 1016.05 1016.35 1016.64 1016.88 1017.04 1017.09 1017.04 1016.92 1016.77 1016.65 1016.60 1016.65 1016.80 1017.04 1017.33 1017.62 1017.86 1018.02 1018.10 1018.08 1018.01 1017.91 1017.83 1017.81 1017.88 1018.06 1018.34
1011.32 1011.40 1011.63 1012.02 1012.54 1013.14 1013.75 1014.32 1014.77 1015.08 1015.26 1015.32 1015.34 1015.36 1015.43 1015.58 1015.82 1016.12 1016.44 1016.70 1016.89 1016.97 1016.93 1016.82 1016.67 1016.54 1016.49 1016.55 1016.72 1016.99 1017.32 1017.65 1017.93 1018.12 1018.19 1018.16 1018.04 1017.88 1017.74 1017.65 1017.66 1017.80 1018.05
1010.98 1011.07 1011.33 1011.77 1012.35 1013.03 1013.71 1014.34 1014.83 1015.16 1015.33 1015.37 1015.34 1015.30 1015.33 1015.45 1015.67 1015.97 1016.30 1016.60 1016.82 1016.93 1016.92 1016.83 1016.70 1016.58 1016.53 1016.59 1016.77 1017.06 1017.40 1017.74 1018.03 1018.22 1018.28 1018.22 1018.06 1017.85 1017.65 1017.51 1017.47 1017.57 1017.80
1010.67 1010.73 1010.99 1011.46 1012.08 1012.81 1013.56 1014.24 1014.78 1015.14 1015.33 1015.37 1015.33 1015.27 1015.28 1015.38 1015.59 1015.90 1016.25 1016.58 1016.84 1017.00 1017.04 1016.99 1016.88 1016.78 1016.74 1016.80 1016.97 1017.23 1017.55 1017.87 1018.13 1018.29 1018.31 1018.21 1018.02 1017.77 1017.52 1017.35 1017.28 1017.35 1017.57
Thickness
5788 5787 5783 5780 5778 5777 5776 5774 5773 5772 5771 5769 5767 5765 5763 5761 5758 5756 5755 5753 5752 5750 5749 5747 5746 5745 5744 5742 5741 5740 5739 5737 5736 5735 5734 5732 5731 5730 5729 5728 5727 5725 5724
5793 5788 5783 5780 5777 5775 5773 5772 5770 5769 5767 5766 5764 5762 5760 5758 5756 5755 5753 5751 5750 5748 5747 5745 5744 5743 5741 5740 5739 5738 5737 5735 5734 5733 5732 5731 5729 5728 5727 5726 5725 5724 5723
5793 5788 5783 5779 5776 5774 5771 5769 5767 5765 5763 5762 5760 5759 5757 5755 5754 5752 5750 5749 5748 5746 5744 5743 5742 5741 5740 5738 5737 5736 5735 5734 5733 5732 5731 5729 5728 5727 5726 5725 5723 5722 5721
5790 5786 5781 5778 5775 5772 5769 5766 5764 5762 5760 5758 5757 5755 5753 5752 5751 5749 5747 5746 5745 5743 5742 5741 5740 5739 5737 5736 5735 5734 5733 5732 5731 5730 5729 5728 5727 5725 5724 5723 5722 5721 5719
5786 5783 5779 5776 5773 5769 5767 5764 5761 5759 5757 5755 5753 5752 5750 5748 5747 5746 5744 5743 5742 5740 5739 5738 5737 5736 5735 5734 5733 5732 5731 5730 5730 5729 5727 5726 5725 5724 5723 5722 5720 5719 5718
5783 5779 5776 5773 5770 5766 5764 5761 5759 5756 5754 5752 5750 5748 5747 5745 5743 5742 5741 5740 5738 5737 5736 5736 5735 5734 5733 5732 5731 5730 5730 5729 5728 5727 5726 5725 5724 5722 5721 5720 5719 5718 5716
5778 5775 5772 5769 5766 5764 5761 5758 5756 5753 5751 5749 5747 5745 5743 5742 5741 5739 5737 5736 5735 5734 5733 5733 5732 5731 5731 5730 5729 5729 5728 5728 5727 5725 5724 5723 5722 5720 5719 5718 5717 5716 5715
5775 5771 5768 5765 5763 5760 5758 5756 5753 5750 5748 5746 5745 5743 5741 5739 5738 5736 5735 5733 5732 5731 5730 5729 5729 5729 5728 5728 5727 5727 5727 5726 5725 5724 5723 5721 5720 5719 5718 5717 5715 5714 5713
5771 5768 5765 5762 5759 5757 5754 5752 5749 5747 5745 5743 5741 5739 5738 5736 5734 5733 5732 5731 5730 5729 5727 5727 5726 5725 5725 5725 5725 5725 5725 5725 5724 5722 5721 5720 5719 5718 5717 5715 5714 5713 5712
5765 5763 5761 5758 5755 5753 5750 5748 5745 5743 5741 5739 5737 5735 5734 5732 5731 5730 5728 5727 5727 5726 5724 5724 5723 5723 5722 5722 5722 5722 5722 5722 5721 5720 5719 5718 5718 5717 5716 5714 5713 5711 5711
5758 5757 5756 5754 5751 5749 5746 5744 5741 5739 5737 5735 5733 5732 5730 5729 5727 5726 5726 5724 5723 5723 5721 5720 5720 5720 5719 5719 5719 5719 5719 5719 5719 5718 5717 5717 5716 5715 5714 5713 5712 5711 5710
5752 5752 5751 5749 5747 5745 5742 5740 5737 5736 5734 5732 5730 5728 5727 5725 5724 5723 5722 5721 5720 5719 5718 5717 5717 5716 5716 5715 5716 5716 5716 5716 5716 5715 5715 5715 5715 5714 5713 5712 5711 5710 5709
5749 5748 5746 5744 5742 5739 5738 5736 5733 5731 5730 5728 5725 5724 5722 5721 5719 5718 5718 5717 5716 5715 5714 5713 5713 5713 5712 5712 5712 5712 5712 5713 5713 5713 5714 5714 5713 5712 5712 5711 5710 5709 5707
5743 5742 5741 5740 5737 5735 5733 5731 5729 5727 5725 5723 5721 5720 5718 5716 5714 5713 5713 5713 5712 5711 5710 5709 5709 5709 5708 5708 5708 5708 5709 5709 5710 5711 5711 5711 5711 5710 5709 5709 5708 5707 5706
5739 5737 5737 5735 5733 5731 5729 5727 5724 5722 5721 5720 5717 5716 5714 5712 5710 5709 5708 5708 5707 5706 5705 5705 5704 5703 5703 5704 5704 5704 5705 5706 5706 5707 5708 5708 5708 5708 5707 5707 5706 5706 5705
5734 5732 5731 5729 5727 5726 5724 5723 5720 5718 5716 5715 5713 5711 5709 5708 5706 5705 5704 5703 5703 5702 5701 5700 5700 5699 5699 5699 5699 5701 5702 5702 5702 5703 5704 5705 5705 5705 5705 5705 5704 5704 5703
5730 5728 5726 5723 5722 5720 5719 5717 5715 5713 5711 5710 5708 5706 5705 5703 5702 5701 5700 5699 5698 5697 5696 5695 5695 5694 5694 5695 5695 5696 5697 5698 5698 5699 5700 5701 5701 5701 5701 5701 5701 5701 5700
5724 5721 5720 5719 5717 5715 5714 5713 5710 5708 5706 5705 5704 5702 5700 5699 5697 5696 5695 5694 5693 5692 5691 5690 5689 5689 5689 5690 5690 5691 5692 5693 5693 5694 5695 5696 5696 5697 5697 5697 5697 5697 5697
5717 5714 5713 5712 5711 5710 5709 5707 5705 5703 5701 5700 5698 5696 5695 5693 5692 5691 5689 5688 5687 5687 5686 5685 5685 5684 5684 5684 5684 5685 5687 5687 5688 5689 5689 5690 5691 5691 5692 5692 5692 5692 5692
5712 5709 5708 5707 5706 5705 5703 5701 5699 5697 5695 5694 5692 5691 5689 5688 5686 5685 5684 5682 5682 5681 5680 5680 5680 5679 5679 5679 5679 5679 5680 5681 5683 5684 5684 5685 5686 5686 5686 5686 5686 5686 5686
5708 5704 5702 5701 5701 5699 5697 5694 5691 5689 5688 5687 5686 5685 5684 5682 5680 5679 5678 5677 5676 5675 5674 5674 5673 5673 5672 5673 5672 5672 5673 5675 5676 5677 5678 5679 5679 5680 5680 5680 5680 5680 5680
5702 5699 5696 5694 5694 5693 5692 5689 5687 5685 5683 5681 5680 5678 5676 5675 5674 5673 5671 5670 5670 5669 5668 5667 5667 5666 5666 5667 5665 5663 5663 5665 5668 5670 5671 5671 5672 5672 5673 5673 5673 5673 5673
5694 5692 5691 5689 5688 5687 5686 5683 5681 5679 5677 5674 5673 5671 5670 5668 5668 5666 5665 5664 5664 5662 5662 5662 5662 5662 5660 5660 5661 5659 5656 5657 5658 5661 5662 5664 5664 5665 5665 5665 5666 5667 5667
5688 5686 5684 5682 5682 5680 5679 5677 5674 5671 5668 5667 5665 5664 5663 5662 5661 5660 5659 5658 5657 5656 5656 5656 5656 5656 5655 5654 5654 5655 5655 5655 5653 5653 5654 5655 5657 5657 5658 5659 5659 5660 5661
5683 5680 5678 5676 5674 5673 5672 5670 5667 5664 5662 5660 5658 5657 5656 5655 5654 5653 5652 5651 5650 5650 5650 5650 5650 5649 5649 5648 5648 5649 5648 5649 5650 5648 5647 5647 5648 5649 5650 5651 5652 5653 5655
5677 5674 5672 5669 5666 5665 5663 5661 5659 5657 5655 5652 5650 5649 5647 5647 5646 5646 5645 5645 5644 5644 5644 5644 5644 5644 5643 5643 5643 5643 5643 5643 5643 5643 5642 5641 5642 5642 5644 5644 5645 5647 5648